GEFSGL_500_meanwind_312.txt.gz
Wind_Speed
14 14 13 14 14 14 15 15 14 14 14 13 13 13 13 12 12 12 12 12 12 12 13 13 13 13 13 13 14 14 14 14 14 14 15 15 15 15 15 15 15 15 15
15 15 15 16 16 16 16 16 16 16 15 15 15 14 14 14 14 13 13 13 13 14 14 13 13 13 14 14 15 15 15 15 16 16 16 16 16 16 16 17 17 17 16
17 17 17 17 18 18 18 18 18 18 17 17 16 15 15 14 15 15 15 15 15 15 15 15 15 14 15 15 15 16 16 17 17 17 17 17 18 18 18 18 18 18 18
19 20 19 19 20 20 20 20 20 20 19 19 18 17 17 16 16 17 17 17 16 16 16 16 15 15 16 16 17 17 18 18 19 19 19 19 19 19 20 20 20 20 20
21 22 22 22 22 22 22 22 21 21 21 21 21 20 19 19 19 19 18 18 18 18 18 18 18 18 17 18 18 19 19 19 20 20 21 21 21 21 22 23 22 22 21
23 23 23 23 23 23 23 23 22 22 21 22 22 22 21 20 20 20 20 19 19 19 20 20 20 20 19 20 20 20 21 21 21 22 22 22 22 23 23 23 24 23 23
25 25 25 24 24 25 24 24 24 24 23 23 24 24 23 23 22 21 21 21 21 21 20 21 21 21 21 21 21 21 22 23 23 23 23 24 24 24 25 25 25 25 25
27 27 26 26 26 26 26 26 26 25 25 25 24 24 24 23 23 23 23 23 23 22 22 22 22 22 22 22 22 22 24 24 24 25 25 25 25 25 25 25 25 25 26
28 28 28 28 27 27 27 27 27 27 27 26 26 25 25 25 25 25 25 25 25 24 24 24 24 24 24 24 24 24 25 25 26 26 26 27 27 28 28 27 27 26 26
29 29 29 29 28 28 28 28 28 28 28 28 28 27 26 26 26 27 27 28 27 27 26 26 26 26 26 26 26 26 27 27 28 28 29 29 29 30 30 28 28 27 27
29 29 29 29 29 29 29 29 29 29 29 29 29 28 28 28 28 28 28 29 28 28 28 27 27 27 28 28 28 29 30 30 30 31 31 31 31 30 30 29 29 28 29
30 30 30 30 30 30 30 30 30 29 29 29 29 29 29 28 29 29 30 30 30 29 28 28 28 29 29 29 30 30 31 31 31 32 32 32 31 31 30 30 30 30 30
31 31 31 31 31 31 31 31 30 30 30 30 29 29 30 30 30 30 30 29 29 30 29 29 30 30 30 31 31 32 33 33 33 33 33 33 32 31 32 31 32 32 32
31 30 30 30 30 30 31 30 30 30 30 30 30 30 30 30 30 30 31 31 30 30 31 31 31 31 32 33 34 34 34 34 34 34 34 33 33 32 32 32 32 32 32
30 30 30 30 29 30 30 30 30 31 31 31 30 30 31 31 31 31 31 31 31 31 31 32 32 33 34 34 35 36 35 35 35 34 34 33 33 33 32 32 32 33 33
31 30 30 30 29 29 30 29 29 30 31 31 31 31 31 31 31 31 31 31 31 31 32 32 33 34 34 35 35 35 35 35 35 35 34 34 34 34 34 34 34 33 33
31 30 30 30 30 30 30 29 29 30 30 31 32 32 32 32 32 32 32 31 32 32 32 33 32 33 33 33 33 33 34 35 36 35 34 34 34 34 34 35 35 35 35
32 31 31 30 30 30 30 30 30 30 30 30 31 31 32 31 31 32 33 33 32 32 33 34 34 33 33 33 33 34 34 34 34 34 34 34 34 34 34 33 34 34 34
32 31 31 30 29 29 29 30 30 30 30 30 30 30 31 31 30 31 32 32 32 32 33 33 34 34 33 33 33 33 34 34 34 34 34 34 34 34 34 33 34 34 35
31 30 29 29 29 29 30 30 30 30 30 30 31 31 31 31 31 31 31 32 31 31 31 32 33 33 33 34 33 33 33 34 34 35 35 34 34 35 35 34 34 34 35
30 29 29 29 29 29 30 30 30 30 30 31 31 31 31 31 32 32 32 31 30 30 31 32 32 33 33 33 33 33 33 33 33 33 33 33 34 34 34 34 33 34 35
29 29 29 29 30 30 30 30 30 30 31 31 30 30 30 30 30 30 31 31 30 29 29 29 30 31 32 33 33 33 33 33 33 32 32 33 33 33 33 33 34 35 35
29 29 28 29 30 30 30 30 31 31 30 31 30 30 30 30 30 30 30 28 29 28 28 29 29 30 31 32 32 32 33 33 33 33 33 33 33 33 34 34 35 35 35
29 29 28 28 29 29 29 29 29 29 29 29 29 29 29 29 29 29 29 28 28 28 28 29 29 29 30 31 31 32 32 32 32 33 33 33 33 33 34 34 34 34 35
28 28 27 27 27 28 28 27 27 28 28 28 28 27 27 28 28 28 29 29 29 29 28 29 29 29 30 30 30 30 31 31 31 32 32 32 33 33 34 33 33 34 34
26 26 26 26 27 27 27 27 27 27 27 27 27 27 27 27 27 28 28 28 28 28 28 29 29 29 29 29 29 29 30 30 31 31 31 31 32 32 33 33 33 34 34

GEFSGL_500_meanwind_318.txt.gz
Wind_Speed
16 17 17 16 16 16 16 16 16 16 15 15 15 15 15 14 14 13 12 13 13 13 14 14 15 14 14 14 14 15 15 15 16 16 16 16 16 16 16 15 15 15 15
17 17 18 17 17 17 18 18 18 17 17 17 17 17 17 15 15 15 14 14 15 15 15 15 16 16 16 16 16 16 16 16 16 17 17 17 17 17 17 17 17 16 16
18 18 18 18 19 19 20 20 20 20 19 19 19 19 18 17 17 17 16 16 16 17 17 17 17 17 17 17 18 18 18 17 17 17 19 19 19 19 19 19 19 19 18
19 20 20 20 21 21 22 22 22 22 21 21 21 20 20 19 19 19 19 18 18 19 19 19 19 18 18 18 18 18 19 19 19 19 19 20 20 20 20 20 20 20 20
21 22 22 22 23 23 23 24 24 24 23 23 22 22 22 22 22 21 21 20 20 21 21 21 20 20 19 19 19 19 19 20 20 20 20 21 21 21 21 21 22 21 21
23 23 24 24 24 24 25 25 25 25 25 25 24 24 24 24 24 24 23 23 22 22 22 21 21 21 20 21 21 21 21 21 22 22 22 22 22 23 23 22 22 22 22
26 26 26 26 27 27 26 26 26 26 26 26 26 26 26 26 26 25 25 25 25 24 24 24 23 23 22 22 23 23 23 23 24 24 24 24 24 24 25 25 24 24 24
28 28 27 27 28 28 27 27 27 26 27 27 27 27 27 27 27 27 26 26 25 25 25 25 26 25 24 25 25 24 24 25 25 25 25 25 25 26 26 26 25 25 25
29 29 28 28 28 28 28 28 27 27 27 27 28 28 28 28 28 28 28 27 27 26 26 26 27 27 27 27 27 27 26 26 26 27 27 27 27 28 28 27 27 26 26
29 30 29 29 29 29 29 28 28 28 28 28 28 28 28 28 28 28 28 28 28 28 27 28 28 28 29 29 29 29 29 29 29 29 29 28 28 29 30 29 29 28 28
29 30 30 30 29 29 29 29 28 28 28 28 28 28 29 29 29 29 29 29 29 29 29 29 30 30 31 31 32 31 31 31 31 31 31 31 31 31 31 31 30 29 29
30 30 31 31 30 30 30 30 30 29 28 28 29 29 28 29 30 30 30 30 31 30 30 31 31 31 32 33 33 32 32 33 33 32 33 33 33 32 32 32 31 31 31
30 30 30 30 30 30 30 30 30 30 29 29 29 29 29 29 30 30 31 31 31 31 32 32 32 32 32 32 33 34 34 34 34 34 34 34 34 33 33 33 32 32 32
31 30 30 30 30 30 30 30 29 29 30 30 30 30 30 30 30 31 31 31 31 32 32 32 33 33 33 33 34 34 34 34 35 35 35 34 34 34 33 33 33 33 32
31 31 31 30 30 30 30 30 30 30 30 30 30 30 30 30 30 31 31 31 31 32 32 32 32 32 33 34 34 35 35 35 35 36 36 35 35 34 34 34 35 34 33
31 31 31 31 30 30 30 31 30 31 31 30 30 30 29 30 30 30 31 31 31 32 32 32 32 33 33 33 34 34 34 34 35 35 35 36 35 35 35 35 35 34 34
32 32 32 32 31 30 30 30 30 30 30 30 30 29 29 29 29 29 30 30 31 32 32 31 32 32 33 33 34 34 34 35 35 35 35 35 35 35 34 35 35 34 34
32 32 32 32 31 30 30 31 31 30 30 30 30 29 29 29 29 30 31 31 31 31 31 31 32 33 33 33 34 34 34 34 35 35 35 34 34 34 33 33 33 33 33
33 33 33 32 32 31 31 32 32 31 30 30 29 29 30 30 30 30 31 31 31 31 31 32 32 32 32 32 32 32 32 33 34 34 34 33 33 33 32 32 32 32 32
33 33 33 33 33 32 32 31 31 31 30 30 30 30 30 30 30 30 30 30 30 31 31 31 31 31 31 31 30 30 31 31 32 32 32 32 33 33 33 32 32 33 33
32 32 32 33 32 31 31 31 32 31 30 30 30 30 30 30 30 29 30 30 31 31 30 30 31 31 30 30 30 30 30 30 30 30 30 31 31 32 33 33 33 34 34
32 32 32 32 31 31 31 32 32 31 30 30 30 30 30 30 29 29 29 29 29 29 29 29 29 29 29 29 29 29 30 30 30 30 30 30 30 31 32 32 32 33 33
31 31 30 30 30 30 30 31 31 30 30 30 30 30 30 29 29 28 28 28 28 28 28 28 28 27 27 28 29 28 28 28 28 29 29 29 29 30 30 31 31 32 33
30 30 30 30 31 30 30 29 28 28 29 29 29 29 28 28 28 27 26 26 27 28 28 27 27 27 27 28 28 27 27 27 27 27 27 28 28 29 29 30 31 32 32
29 29 30 30 30 30 29 27 27 27 27 28 28 28 28 28 28 27 27 27 27 28 27 27 27 28 27 28 27 26 27 27 27 27 27 28 28 29 29 30 30 31 31
28 29 29 29 29 28 27 27 26 27 27 27 28 27 27 26 26 26 26 26 27 27 28 28 28 28 28 28 27 26 26 26 26 27 27 27 27 28 29 29 30 30 30

GEFSGL_500_meanwind_324.txt.gz
Wind_Speed
18 19 19 19 19 20 20 19 20 20 20 20 19 19 18 17 16 16 16 17 17 16 17 17 16 16 16 16 16 16 16 16 15 15 15 15 15 15 15 15 15 15 16
20 20 20 20 20 20 21 20 21 21 21 21 21 20 20 19 18 18 18 18 18 18 18 18 17 17 17 17 18 18 18 18 17 17 17 17 16 16 16 15 16 16 17
21 21 21 21 21 22 22 21 21 22 23 22 22 21 21 20 20 20 20 20 20 20 20 20 20 20 20 19 19 19 19 19 19 19 19 19 19 19 18 18 18 18 18
22 22 23 23 23 24 24 23 23 23 23 23 22 22 22 22 22 22 22 22 22 22 21 21 22 21 21 21 20 20 20 21 21 21 21 21 21 21 20 20 20 20 20
25 25 25 25 26 26 25 25 24 25 24 24 24 23 23 24 23 24 24 23 23 23 23 23 23 23 22 22 22 22 22 22 23 23 22 22 22 22 21 21 22 21 21
26 27 27 27 27 27 26 25 25 26 26 26 25 25 25 25 24 25 25 24 24 25 25 25 24 24 24 24 24 25 24 24 25 25 24 23 23 23 23 23 23 23 23
28 28 28 28 28 28 28 27 27 27 27 27 27 27 27 26 26 26 27 27 27 27 27 26 26 26 26 26 26 26 27 27 27 27 26 25 25 25 25 25 24 25 25
29 28 29 29 29 29 28 28 29 30 29 28 28 28 28 28 28 29 29 29 29 28 28 28 27 27 27 27 27 27 27 28 28 28 28 27 27 27 27 27 26 26 26
29 29 30 29 29 29 30 30 31 31 30 30 29 28 29 29 30 30 30 30 30 30 30 29 28 28 28 29 29 28 29 29 30 30 29 29 29 30 30 29 29 27 27
30 31 30 31 31 31 31 31 31 31 30 30 30 30 30 30 30 30 30 30 30 30 30 30 30 30 30 30 30 30 30 30 31 31 31 31 31 31 31 31 30 30 29
31 31 31 31 31 32 32 32 32 32 31 31 31 31 31 32 32 32 32 32 31 31 31 31 31 31 31 32 32 32 32 33 32 33 33 33 32 32 32 32 32 31 31
31 31 31 31 32 32 32 32 32 32 31 32 32 32 32 33 33 33 33 33 33 32 31 31 31 32 31 32 32 33 33 34 33 33 33 32 33 32 32 32 31 31 31
31 32 31 31 31 32 32 32 32 32 32 32 32 32 32 32 32 32 33 33 33 32 31 32 32 32 32 32 32 33 33 34 34 34 33 32 33 33 32 32 32 32 32
31 31 31 31 32 32 33 33 33 34 34 34 33 33 32 32 32 32 32 32 32 32 32 32 32 31 31 31 32 33 33 33 33 33 33 32 32 32 32 31 31 31 31
32 32 32 32 32 33 33 33 34 35 34 34 34 33 33 33 33 33 33 32 33 33 32 31 32 32 32 32 32 32 32 32 31 32 32 32 32 31 31 31 31 31 31
32 33 33 33 34 35 34 34 34 34 34 34 35 35 34 34 33 33 33 32 33 32 32 31 31 31 32 32 32 33 33 32 32 32 32 32 32 31 30 31 31 31 31
33 33 34 34 35 35 35 35 34 35 35 34 35 34 34 34 34 33 32 32 32 31 31 31 31 31 32 32 32 32 32 32 32 32 32 32 31 31 31 31 31 32 32
33 33 34 34 35 35 35 36 36 36 35 35 34 33 32 33 33 32 32 31 31 30 30 31 30 30 31 31 31 32 31 31 32 32 32 31 31 31 31 31 31 31 31
33 33 34 34 35 35 35 36 36 36 35 34 33 32 32 32 32 31 31 31 30 30 30 30 29 29 29 30 30 30 30 30 31 31 31 31 31 31 31 30 30 30 30
33 34 34 35 35 35 35 35 36 36 35 34 32 32 32 32 31 31 31 31 30 29 29 29 29 29 29 29 30 30 30 29 29 29 29 30 30 30 30 30 29 29 29
34 34 34 35 35 35 35 35 35 35 34 33 32 32 33 33 33 32 32 30 29 29 29 29 29 29 29 30 30 29 29 28 29 29 29 29 29 29 29 30 29 29 28
34 34 35 34 34 34 34 35 35 35 34 33 32 32 32 32 32 31 30 29 29 29 29 29 29 29 29 28 29 29 27 27 27 27 27 27 26 27 28 28 28 28 28
33 33 33 33 34 34 34 34 33 33 33 33 33 33 33 32 31 30 29 29 29 29 29 30 30 30 29 28 27 27 26 26 25 25 26 26 26 27 27 27 27 27 27
31 32 32 33 33 33 33 33 33 33 33 33 33 32 32 31 31 30 29 29 29 30 29 30 30 30 28 27 27 27 27 27 26 25 25 26 26 26 27 27 27 27 27
30 30 31 31 32 32 32 32 32 32 32 32 32 31 31 30 30 30 29 29 29 29 29 29 28 28 28 28 27 27 27 26 26 26 26 26 26 25 26 26 26 26 26
29 29 30 30 31 31 31 32 32 32 31 31 30 30 30 29 28 28 28 29 29 29 29 28 28 27 27 27 27 27 27 27 27 27 27 26 26 25 25 25 25 25 25

GEFSGL_500_meanwind_330.txt.gz
Wind_Speed
16 16 16 17 17 17 17 18 18 18 17 17 17 17 16 16 16 17 17 17 16 16 16 16 16 17 17 17 17 17 16 16 16 16 16 16 16 16 16 16 17 17 17
17 17 18 19 19 19 19 19 19 19 18 18 18 18 18 18 18 19 18 18 18 18 18 18 17 17 17 17 18 18 19 19 18 18 18 19 18 18 18 18 19 19 19
19 19 19 20 20 20 20 20 20 20 19 20 20 20 20 20 20 20 20 20 20 20 20 20 20 20 19 19 20 20 19 20 20 19 20 21 20 20 19 19 20 20 21
20 19 20 20 21 20 21 21 21 20 20 21 20 20 21 21 22 22 22 22 22 22 22 22 22 22 22 22 22 21 21 21 21 22 22 22 23 22 22 22 22 22 22
21 21 22 21 21 21 22 22 22 22 22 22 22 22 21 21 22 22 22 23 23 24 24 23 24 24 23 23 23 23 23 23 23 23 24 25 25 25 25 25 24 25 25
22 22 22 23 22 22 23 23 23 23 23 24 23 22 22 23 23 23 24 24 24 24 24 24 25 25 25 25 25 25 25 25 25 25 25 26 27 27 27 28 27 27 27
23 23 23 23 24 24 24 24 24 25 25 25 25 24 24 24 24 24 24 24 25 25 25 25 26 26 26 27 27 27 27 27 27 27 27 27 28 29 30 30 29 29 28
24 24 24 25 26 26 26 26 25 26 26 26 26 26 25 25 25 25 26 26 26 26 27 27 27 27 28 28 28 28 28 28 29 29 28 28 28 29 30 29 29 30 30
26 26 27 27 28 28 27 27 27 27 27 27 27 27 27 27 27 27 28 28 28 28 29 29 29 29 29 29 29 29 29 30 30 30 30 30 30 30 30 30 30 30 30
27 27 28 28 28 28 27 28 28 28 28 28 28 28 29 29 29 29 29 30 30 30 30 31 31 30 31 31 31 31 31 31 32 32 32 32 32 31 32 32 31 31 31
28 29 29 29 29 29 29 29 29 29 29 29 29 29 30 30 31 31 30 30 31 31 31 32 32 32 32 32 32 32 32 33 33 33 33 34 34 34 34 34 33 33 32
29 30 30 30 30 30 30 29 29 29 29 29 30 30 30 30 31 31 31 32 32 32 32 33 34 34 33 32 33 33 33 33 33 34 34 34 34 34 34 34 34 34 32
30 30 31 31 31 31 31 31 31 30 30 30 30 30 30 31 31 31 32 32 33 32 32 32 32 32 31 31 32 32 33 32 32 32 33 33 34 34 33 33 34 33 33
30 31 32 32 32 32 32 32 32 32 32 31 31 31 31 31 31 32 32 32 32 31 31 30 30 30 30 30 30 30 31 31 31 31 32 33 33 33 33 33 34 33 33
31 32 32 32 32 32 32 32 32 32 32 32 31 31 32 31 31 32 32 32 31 30 29 29 28 28 28 29 29 29 30 31 30 30 30 30 30 30 31 32 33 33 33
32 31 32 32 33 32 31 31 30 31 32 32 32 32 32 32 31 31 32 32 31 30 29 28 28 28 28 29 29 29 30 31 31 30 30 30 29 29 30 30 30 30 31
32 32 31 32 32 32 32 31 31 31 32 32 32 33 33 33 32 32 31 31 30 29 28 27 27 28 28 29 29 29 29 30 30 31 30 30 30 30 30 29 29 29 30
32 32 31 31 31 31 31 31 31 32 32 32 32 33 33 32 32 32 31 31 30 29 28 28 28 28 28 29 29 29 28 29 30 30 30 30 30 30 30 29 29 30 30
32 32 32 32 32 32 31 31 32 32 32 33 32 33 33 32 32 32 31 31 30 29 29 29 28 28 28 28 28 28 28 29 29 29 29 29 29 29 29 29 29 29 29
32 33 33 33 32 31 31 32 32 32 33 33 33 32 32 32 31 30 30 30 30 29 29 29 29 28 27 27 27 26 26 26 26 26 27 27 27 27 28 27 27 28 28
31 32 32 32 32 31 32 32 32 33 33 33 33 33 32 32 31 30 29 29 29 29 28 28 28 28 28 26 25 26 26 25 26 25 25 26 26 27 27 27 27 27 27
30 31 31 31 32 32 32 32 32 32 33 33 33 32 32 31 31 30 30 30 29 29 28 28 27 27 26 25 25 25 26 26 26 26 26 26 26 26 26 26 27 27 27
30 30 31 31 32 32 32 31 31 32 32 32 33 32 31 31 31 31 31 30 29 29 28 28 27 26 26 26 26 27 26 25 25 25 25 25 25 25 25 25 25 26 25
30 29 29 30 30 31 31 31 31 31 32 31 31 31 30 30 30 30 30 29 29 29 28 27 26 26 26 26 26 26 26 26 26 24 23 23 23 23 23 22 23 24 24
28 28 29 29 30 30 30 31 31 31 31 30 30 29 29 29 28 28 28 28 28 28 27 26 26 25 26 27 27 26 26 26 25 24 23 23 23 23 23 23 22 23 24
27 28 28 28 28 29 29 29 30 30 29 28 28 28 27 27 27 27 26 27 27 27 26 25 25 25 26 26 26 25 24 24 23 23 23 23 22 23 23 23 23 22 22

GEFSGL_500_meanwind_336.txt.gz
Wind_Speed
16 17 18 17 17 16 16 16 17 17 18 18 19 19 19 19 20 20 20 20 20 20 20 20 20 20 20 20 20 20 21 20 19 19 20 21 21 21 21 21 21 20 21
17 17 18 18 17 17 17 17 18 19 19 19 19 20 20 20 21 21 21 22 22 22 22 22 22 22 22 22 22 22 22 22 22 21 22 22 22 22 23 22 22 22 22
17 18 18 18 18 18 18 19 19 20 20 20 20 21 21 22 22 22 22 23 23 23 23 23 23 24 24 24 24 24 24 24 24 23 24 24 25 24 24 25 24 25 24
19 19 19 19 19 19 20 20 20 21 21 21 22 22 22 23 23 23 24 24 24 24 24 24 24 24 24 25 25 25 25 25 25 25 25 25 26 26 26 26 26 27 27
20 21 21 20 20 21 21 22 22 23 23 23 23 24 24 24 24 24 24 24 24 25 25 25 26 25 25 26 26 26 27 27 27 27 28 28 28 29 29 29 28 28 28
22 22 22 22 22 22 23 23 24 25 25 25 25 25 26 26 25 25 25 25 26 26 26 26 27 27 27 27 27 28 28 28 29 29 29 30 30 31 31 31 30 30 29
23 23 23 24 23 23 24 25 25 26 26 26 26 27 27 27 27 27 27 27 27 27 27 27 27 28 28 28 28 29 29 30 30 31 31 31 32 32 32 32 32 32 32
25 24 25 25 25 25 25 26 27 27 28 28 28 29 29 29 29 29 29 29 29 29 29 29 29 29 29 29 30 30 31 31 32 33 33 33 33 33 33 33 32 32 33
26 26 27 27 27 27 27 28 28 28 29 29 30 30 30 30 31 31 30 30 30 31 31 31 31 31 31 31 32 32 32 33 33 33 33 33 33 33 33 33 33 33 33
27 27 28 28 28 28 29 29 30 30 30 30 30 30 30 30 31 31 31 31 31 32 32 33 33 33 33 33 33 33 33 33 33 33 34 34 34 34 34 33 33 34 34
28 29 29 30 30 30 31 31 31 31 31 31 31 31 31 31 31 32 32 32 32 32 33 34 34 34 34 34 33 33 34 34 34 35 36 36 36 36 35 34 34 34 34
30 30 31 32 32 32 32 33 33 32 32 32 32 32 32 32 32 32 32 33 34 34 34 34 34 34 34 34 34 34 35 35 36 35 35 36 36 36 36 35 34 34 34
32 32 32 33 33 33 33 34 34 33 34 34 33 33 33 33 33 33 34 34 35 35 35 35 34 34 34 34 34 34 34 35 35 34 34 35 35 36 36 35 35 35 35
32 33 33 33 33 33 34 34 34 34 34 34 34 35 34 33 34 34 35 35 35 35 35 34 33 33 33 32 32 33 34 34 34 33 33 34 34 35 35 35 34 34 34
33 34 34 33 34 34 34 35 35 35 35 34 34 34 34 34 35 35 35 35 34 34 34 33 33 33 32 32 33 33 33 33 33 33 33 32 32 32 33 33 32 32 32
33 34 34 34 34 35 35 35 35 34 34 34 34 34 34 35 35 35 35 35 35 35 34 33 33 33 33 33 33 33 32 32 32 31 31 31 31 31 30 30 30 30 29
33 33 33 33 34 34 34 34 33 33 33 33 34 35 35 35 36 36 35 35 36 35 33 32 32 32 32 32 32 32 32 32 31 30 30 30 30 29 28 29 28 28 28
32 32 33 33 33 33 32 33 33 33 34 34 35 35 35 36 37 37 36 35 34 34 32 31 31 31 31 31 31 30 30 30 29 29 29 29 28 28 28 28 28 28 28
31 32 32 32 32 32 32 32 33 34 34 34 35 35 35 35 35 35 33 32 31 30 30 30 30 30 30 30 29 28 28 27 27 28 28 28 28 27 27 27 27 27 27
31 31 32 32 31 31 31 32 32 33 33 33 33 33 33 33 32 30 30 30 29 28 28 28 29 28 28 27 27 27 27 26 26 27 27 27 27 26 26 26 26 26 26
30 31 31 31 30 30 31 32 32 32 32 33 33 33 33 31 30 29 30 29 29 28 28 28 28 28 27 27 27 27 27 26 26 26 26 26 25 25 25 25 25 24 24
29 30 30 30 30 30 30 31 31 32 32 32 32 32 32 31 31 30 29 28 28 29 28 28 27 27 28 27 27 27 27 26 26 25 25 24 24 24 24 24 23 23 23
29 28 28 28 29 29 30 30 31 31 31 31 31 31 31 30 29 29 29 28 28 28 28 27 27 27 27 27 27 26 26 26 25 25 24 23 23 23 23 22 22 23 22
27 27 27 28 29 29 30 30 31 31 31 30 30 29 29 29 29 28 27 27 27 26 26 26 26 26 26 26 26 26 25 25 24 24 23 22 22 21 21 21 21 21 22
27 27 27 28 29 29 30 30 30 30 29 29 28 28 28 28 27 27 26 26 26 25 25 25 25 25 25 25 25 25 24 24 24 22 22 21 21 20 20 20 21 21 21
27 27 27 28 28 29 29 28 28 28 27 27 27 27 26 26 26 25 25 25 25 25 24 24 24 24 24 24 24 23 23 22 21 20 20 19 19 19 19 20 20 20 21